Weather History for K20V - January, 2013

Change the Weather History Date:

Wednesday, January 2, 2013

  Actual Average (KEGE) Record (KEGE)
Temperature  
Mean Temperature -4 °F -  
Max Temperature 10 °F 28 °F 50 °F (1998)
Min Temperature -18 °F -2 °F -30 °F (1979)
Degree Days  
Heating Degree Days 69    
Moisture  
Dew Point -10 °F    
Average Humidity 72    
Maximum Humidity 84    
Minimum Humidity 61    
Precipitation  
Precipitation 0.00 in - - ()
Sea Level Pressure  
Sea Level Pressure 30.21 in    
Wind  
Wind Speed 0 mph (East)    
Max Wind Speed 6 mph    
Max Gust Speed -    
Averages and records for this station are not official NWS values.
T = Trace of Precipitation, MM = Missing Value Source: NWS Daily Summary

Daily Weather History Graph

Daily Weather History Graph

Search for Another Location

Airport or City:

Trip Planner

Search our weather history database for the weather conditions in past years. The results will help you decide how hot, cold, wet, or windy it might be!

Date:

Astronomy

Jan. 02, 2013 Rise Set
Actual Time 7:27 AM MST 4:51 PM MST
Civil Twilight 6:57 AM MST 5:22 PM MST
Nautical Twilight 6:23 AM MST 5:56 PM MST
Astronomical Twilight 5:50 AM MST 6:29 PM MST
Moon 10:27 PM MST (1/2) 10:10 AM MST (1/2)
Length of Visible Light 10h 25m
Length of Day
9h 24m
Waning Gibbous, 74% of the Moon is Illuminated
Jan 2
Waning Gibbous
Jan 4
Last Quarter
Jan 11
New
Jan 18
First Quarter
Jan 26
Full

Hourly Weather History & Observations

Time (MST) Temp. Windchill Dew Point Humidity Pressure Visibility Wind Dir Wind Speed Gust Speed Precip Events Conditions
12:15 AM 3.2 °F - -2.2 °F 78% 30.18 in - Calm Calm - N/A Snow Light Snow
12:35 AM 3.2 °F - -2.2 °F 78% 30.18 in - Calm Calm - N/A   Overcast
12:55 AM 1.4 °F - -4.0 °F 78% 30.18 in - Calm Calm - N/A Snow Light Snow
1:15 AM -0.4 °F - -5.8 °F 78% 30.18 in - Calm Calm - N/A Snow Light Snow
1:35 AM -2.2 °F - -7.6 °F 78% 30.18 in - Calm Calm - N/A   Scattered Clouds
1:55 AM -5.8 °F - -11.2 °F 77% 30.19 in - Calm Calm - N/A Snow Light Snow
2:35 AM -4.0 °F - -9.4 °F 78% 30.19 in - Calm Calm - N/A   Unknown
2:55 AM -7.6 °F - -14.8 °F 71% 30.19 in - Calm Calm - N/A   Unknown
3:14 AM -7.6 °F - -14.8 °F 71% 30.19 in - Calm Calm - N/A   Unknown
3:35 AM -7.6 °F - -13.0 °F 77% 30.19 in - Calm Calm - N/A   Overcast
3:55 AM -7.6 °F - -14.8 °F 71% 30.18 in - Calm Calm - N/A   Overcast
4:15 AM -5.8 °F - -11.2 °F 77% 30.17 in - Calm Calm - N/A Snow Light Snow
4:35 AM -5.8 °F - -11.2 °F 77% 30.17 in - Calm Calm - N/A Snow Light Snow
5:15 AM -5.8 °F - -11.2 °F 77% 30.18 in - Calm Calm - N/A Snow Light Snow
5:35 AM -5.8 °F - -11.2 °F 77% 30.18 in - Calm Calm - N/A Snow Light Snow
5:55 AM -4.0 °F - -9.4 °F 78% 30.18 in - Calm Calm - N/A Snow Light Snow
6:15 AM -2.2 °F - -7.6 °F 78% 30.19 in - Calm Calm - N/A Snow Light Snow
6:35 AM -4.0 °F - -9.4 °F 78% 30.19 in - Calm Calm - N/A Snow Light Snow
6:55 AM -5.8 °F - -11.2 °F 77% 30.20 in - Calm Calm - N/A Snow Light Snow
7:15 AM -4.0 °F - -11.2 °F 71% 30.20 in - Calm Calm - N/A Snow Light Snow
7:35 AM -4.0 °F - -11.2 °F 71% 30.20 in - Calm Calm - N/A   Overcast
7:55 AM -5.8 °F - -14.8 °F 65% 30.20 in - Calm Calm - N/A Snow Light Snow
8:15 AM -5.8 °F - -11.2 °F 77% 30.20 in - Calm Calm - N/A   Overcast
8:35 AM -4.0 °F - -11.2 °F 71% 30.21 in - Calm Calm - N/A Snow Light Snow
8:55 AM -4.0 °F - -9.4 °F 78% 30.21 in - Calm Calm - N/A   Mostly Cloudy
9:14 AM -2.2 °F - -7.6 °F 78% 30.21 in - Calm Calm - N/A   Scattered Clouds
9:35 AM -2.2 °F - -9.4 °F 71% 30.21 in - Calm Calm - N/A   Clear
9:55 AM -0.4 °F - -7.6 °F 72% 30.21 in - Calm Calm - N/A Snow Light Snow
10:14 AM -0.4 °F - -7.6 °F 72% 30.21 in - Calm Calm - N/A Snow Light Snow
10:35 AM 3.2 °F - -5.8 °F 66% 30.20 in - Calm Calm - N/A Snow Light Snow
10:55 AM 3.2 °F - -5.8 °F 66% 30.20 in - Calm Calm - N/A   Overcast
11:15 AM 5.0 °F - -5.8 °F 61% 30.19 in - Calm Calm - N/A   Overcast
11:35 AM 6.8 °F - -4.0 °F 61% 30.19 in - Calm Calm - N/A   Overcast
11:55 AM 5.0 °F - -4.0 °F 66% 30.19 in - Calm Calm - N/A Snow Light Snow
12:15 PM 5.0 °F - -4.0 °F 66% 30.19 in - Calm Calm - N/A Snow Light Snow
12:35 PM 5.0 °F - -2.2 °F 72% 30.18 in - Calm Calm - N/A   Overcast
12:55 PM 10.4 °F - -0.4 °F 62% 30.17 in - Calm Calm - N/A   Overcast
1:15 PM 10.4 °F - -0.4 °F 62% 30.16 in - Calm Calm - N/A   Overcast
1:35 PM 10.4 °F - -0.4 °F 62% 30.16 in - Calm Calm - N/A   Unknown
1:55 PM 10.4 °F - -0.4 °F 62% 30.16 in - Calm Calm - N/A   Unknown
2:15 PM 10.4 °F - 1.4 °F 67% 30.16 in - Calm Calm - N/A   Clear
2:35 PM 8.6 °F - -0.4 °F 67% 30.16 in - Calm Calm - N/A   Scattered Clouds
2:55 PM 8.6 °F - -0.4 °F 67% 30.16 in - Calm Calm - N/A   Overcast
3:15 PM 8.6 °F - -0.4 °F 67% 30.16 in - Calm Calm - N/A   Scattered Clouds
3:35 PM 8.6 °F 0.1 °F -2.2 °F 62% 30.17 in - ESE 4.6 mph - N/A   Scattered Clouds
3:55 PM 8.6 °F - -0.4 °F 67% 30.17 in - Calm Calm - N/A   Scattered Clouds
4:15 PM 8.6 °F -1.3 °F -0.4 °F 67% 30.18 in - WSW 5.8 mph - N/A   Scattered Clouds
4:35 PM 3.2 °F - -4.0 °F 72% 30.19 in - Calm Calm - N/A   Clear
4:55 PM -0.4 °F -8.3 °F -5.8 °F 78% 30.19 in - ENE 3.5 mph - N/A   Clear
5:15 PM -2.2 °F -10.4 °F -7.6 °F 78% 30.20 in - ENE 3.5 mph - N/A   Clear
5:35 PM -2.2 °F - -7.6 °F 78% 30.20 in - Calm Calm - N/A   Clear
5:55 PM -4.0 °F -12.4 °F -9.4 °F 78% 30.22 in - NE 3.5 mph - N/A   Clear
6:15 PM -7.6 °F - -13.0 °F 77% 30.22 in - Calm Calm - N/A   Clear
6:35 PM -5.8 °F - -9.4 °F 84% 30.22 in - Calm Calm - N/A   Clear
6:55 PM -9.4 °F -20.9 °F -14.8 °F 77% 30.22 in - East 4.6 mph - N/A   Clear
7:14 PM -7.6 °F - -14.8 °F 71% 30.23 in - Calm Calm - N/A   Clear
7:35 PM -7.6 °F - -13.0 °F 77% 30.24 in - Calm Calm - N/A   Clear
7:55 PM -9.4 °F - -16.6 °F 71% 30.25 in - Calm Calm - N/A   Clear
8:15 PM -11.2 °F - -18.4 °F 70% 30.25 in - Calm Calm - N/A   Clear
8:35 PM -13.0 °F - -18.4 °F 77% 30.26 in - Calm Calm - N/A   Clear
8:55 PM -13.0 °F - -18.4 °F 77% 30.26 in - Calm Calm - N/A   Clear
9:15 PM -13.0 °F - -20.2 °F 70% 30.27 in - Calm Calm - N/A   Clear
9:35 PM -14.8 °F - -22.0 °F 70% 30.27 in - Calm Calm - N/A   Clear
9:55 PM -16.6 °F - -23.8 °F 70% 30.28 in - Calm Calm - N/A   Scattered Clouds
10:15 PM -16.6 °F - -23.8 °F 70% 30.29 in - Calm Calm - N/A   Mostly Cloudy
10:35 PM -18.4 °F - -27.4 °F 63% 30.30 in - Calm Calm - N/A   Scattered Clouds
10:55 PM -16.6 °F - -23.8 °F 70% 30.30 in - Calm Calm - N/A   Clear
11:15 PM -16.6 °F - -25.6 °F 64% 30.31 in - Calm Calm - N/A   Clear
11:35 PM -18.4 °F - -25.6 °F 70% 30.31 in - Calm Calm - N/A   Clear
11:55 PM -16.6 °F - -25.6 °F 64% 30.32 in - Calm Calm - N/A   Clear